Time,TemperatureF,DewpointF,PressureIn,WindDirection,WindDirectionDegrees,WindSpeedMPH,WindSpeedGustMPH,Humidity,HourlyPrecipIn,Conditions,Clouds,dailyrainin,SolarRadiationWatts/m^2,SoftwareType,DateUTC
2013-03-25 00:00:00,70.8,68.4,29.73,South,185,0.0,7.0,92,0.00,,---,0.00,0.00,VWS V14.00,2013-03-25 04:00:00,
2013-03-25 00:30:00,71.0,68.6,29.73,South,185,1.0,3.0,92,0.00,,---,0.00,0.00,VWS V14.00,2013-03-25 04:30:00,
2013-03-25 01:00:00,71.1,68.7,29.74,South,185,0.0,4.0,92,0.00,,---,0.00,0.00,VWS V14.00,2013-03-25 05:00:00,
2013-03-25 01:30:00,71.6,69.2,29.74,South,185,0.0,3.0,92,0.00,,---,0.00,0.00,VWS V14.00,2013-03-25 05:30:00,
2013-03-25 02:00:00,71.9,69.4,29.74,South,190,0.0,4.0,92,0.00,,---,0.00,0.00,VWS V14.00,2013-03-25 06:00:00,
2013-03-25 02:30:00,71.2,68.8,29.74,West,273,5.0,9.0,92,0.00,,---,0.00,0.00,VWS V14.00,2013-03-25 06:30:00,
2013-03-25 03:00:00,70.8,68.4,29.73,West,279,0.0,9.0,92,0.00,,---,0.00,0.00,VWS V14.00,2013-03-25 07:00:00,
2013-03-25 03:30:00,70.0,67.6,29.73,West,279,0.0,3.0,92,0.00,,---,0.00,0.00,VWS V14.00,2013-03-25 07:30:00,
2013-03-25 04:00:00,68.9,66.2,29.73,West,279,2.0,7.0,91,0.00,,---,0.00,0.00,VWS V14.00,2013-03-25 08:00:00,
2013-03-25 04:30:00,68.3,65.6,29.73,West,280,0.0,8.0,91,0.00,,---,0.00,0.00,VWS V14.00,2013-03-25 08:30:00,
2013-03-25 05:00:00,67.4,64.4,29.73,West,280,6.0,7.0,90,0.00,,---,0.00,0.00,VWS V14.00,2013-03-25 09:00:00,
2013-03-25 05:30:00,66.3,63.3,29.74,WNW,287,2.0,9.0,90,0.00,,---,0.00,0.00,VWS V14.00,2013-03-25 09:30:00,
2013-03-25 06:00:00,65.4,62.4,29.75,WNW,289,0.0,8.0,90,0.00,,---,0.00,0.00,VWS V14.00,2013-03-25 10:00:00,
2013-03-25 06:30:00,64.7,62.0,29.76,WNW,287,4.0,10.0,91,0.00,,---,0.00,0.00,VWS V14.00,2013-03-25 10:30:00,
2013-03-25 07:00:00,63.9,61.2,29.77,WNW,286,3.0,9.0,91,0.00,,---,0.00,5.00,VWS V14.00,2013-03-25 11:00:00,
2013-03-25 07:30:00,63.5,61.1,29.78,WNW,284,3.0,8.0,92,0.00,,---,0.00,42.00,VWS V14.00,2013-03-25 11:30:00,
2013-03-25 08:00:00,63.5,60.8,29.80,WNW,288,4.0,14.0,91,0.00,,---,0.00,142.00,VWS V14.00,2013-03-25 12:00:00,
2013-03-25 08:30:00,64.2,61.2,29.82,WNW,288,9.0,11.0,90,0.00,,---,0.00,251.00,VWS V14.00,2013-03-25 12:30:00,
2013-03-25 09:00:00,65.1,61.1,29.84,WNW,292,3.0,17.0,87,0.00,,---,0.00,246.00,VWS V14.00,2013-03-25 13:00:00,
2013-03-25 09:30:00,66.2,60.5,29.85,WNW,282,6.0,15.0,82,0.00,,---,0.00,473.00,VWS V14.00,2013-03-25 13:30:00,
2013-03-25 10:00:00,68.0,60.9,29.87,WNW,282,3.0,14.0,78,0.00,,---,0.00,577.00,VWS V14.00,2013-03-25 14:00:00,
2013-03-25 10:30:00,69.0,60.4,29.88,West,276,7.0,13.0,74,0.00,,---,0.00,661.00,VWS V14.00,2013-03-25 14:30:00,
2013-03-25 11:00:00,70.2,60.0,29.89,West,279,3.0,15.0,70,0.00,,---,0.00,737.00,VWS V14.00,2013-03-25 15:00:00,
2013-03-25 11:30:00,71.4,55.9,29.90,WNW,287,2.0,13.0,58,0.00,,---,0.00,807.00,VWS V14.00,2013-03-25 15:30:00,
2013-03-25 12:00:00,72.2,49.7,29.91,West,263,5.0,13.0,45,0.00,,---,0.00,865.00,VWS V14.00,2013-03-25 16:00:00,
2013-03-25 12:30:00,72.6,45.6,29.90,West,273,9.0,13.0,38,0.00,,---,0.00,896.00,VWS V14.00,2013-03-25 16:30:00,
2013-03-25 13:00:00,73.5,44.9,29.89,WNW,294,10.0,18.0,36,0.00,,---,0.00,912.00,VWS V14.00,2013-03-25 17:00:00,
2013-03-25 13:30:00,73.7,43.6,29.88,West,269,5.0,14.0,34,0.00,,---,0.00,911.00,VWS V14.00,2013-03-25 17:30:00,
2013-03-25 14:00:00,74.3,44.1,29.86,WNW,286,5.0,13.0,34,0.00,,---,0.00,893.00,VWS V14.00,2013-03-25 18:00:00,
2013-03-25 14:30:00,74.5,41.9,29.85,WNW,292,4.0,13.0,31,0.00,,---,0.00,860.00,VWS V14.00,2013-03-25 18:30:00,
2013-03-25 15:00:00,75.7,46.1,29.85,West,271,3.0,16.0,35,0.00,,---,0.00,798.00,VWS V14.00,2013-03-25 19:00:00,
2013-03-25 15:30:00,75.9,47.1,29.85,WNW,298,3.0,13.0,36,0.00,,---,0.00,731.00,VWS V14.00,2013-03-25 19:30:00,
2013-03-25 16:00:00,74.9,43.1,29.85,West,267,3.0,14.0,32,0.00,,---,0.00,650.00,VWS V14.00,2013-03-25 20:00:00,
2013-03-25 16:30:00,74.4,42.7,29.85,WNW,296,7.0,14.0,32,0.00,,---,0.00,555.00,VWS V14.00,2013-03-25 20:30:00,
2013-03-25 17:00:00,74.1,42.4,29.85,West,272,7.0,16.0,32,0.00,,---,0.00,454.00,VWS V14.00,2013-03-25 21:00:00,
2013-03-25 17:30:00,73.8,41.3,29.86,WNW,286,5.0,11.0,31,0.00,,---,0.00,297.00,VWS V14.00,2013-03-25 21:30:00,
2013-03-25 18:00:00,73.1,43.1,29.87,WNW,285,0.0,9.0,34,0.00,,---,0.00,227.00,VWS V14.00,2013-03-25 22:00:00,
2013-03-25 18:30:00,72.1,39.8,29.88,WNW,284,0.0,11.0,31,0.00,,---,0.00,42.00,VWS V14.00,2013-03-25 22:30:00,
2013-03-25 19:00:00,70.3,42.1,29.90,WNW,283,0.0,7.0,36,0.00,,---,0.00,18.00,VWS V14.00,2013-03-25 23:00:00,
2013-03-25 19:30:00,67.5,43.0,29.91,WNW,283,0.0,5.0,41,0.00,,---,0.00,0.00,VWS V14.00,2013-03-25 23:30:00,
2013-03-25 20:00:00,64.3,42.5,29.92,WNW,284,0.0,1.0,45,0.00,,---,0.00,0.00,VWS V14.00,2013-03-26 00:00:00,
2013-03-25 20:30:00,62.4,41.4,29.93,WNW,284,0.0,5.0,46,0.00,,---,0.00,0.00,VWS V14.00,2013-03-26 00:30:00,
2013-03-25 21:00:00,61.8,41.9,29.94,WNW,284,0.0,6.0,48,0.00,,---,0.00,0.00,VWS V14.00,2013-03-26 01:00:00,
2013-03-25 21:30:00,60.3,39.5,29.96,WNW,284,2.0,6.0,46,0.00,,---,0.00,0.00,VWS V14.00,2013-03-26 01:30:00,
2013-03-25 22:00:00,60.0,38.6,29.98,WNW,283,3.0,7.0,45,0.00,,---,0.00,0.00,VWS V14.00,2013-03-26 02:00:00,
2013-03-25 22:30:00,59.3,38.0,30.00,WNW,285,3.0,9.0,45,0.00,,---,0.00,0.00,VWS V14.00,2013-03-26 02:30:00,
2013-03-25 23:00:00,57.7,38.7,30.00,WNW,293,5.0,9.0,49,0.00,,---,0.00,0.00,VWS V14.00,2013-03-26 03:00:00,
2013-03-25 23:30:00,56.0,40.1,30.01,West,279,6.0,10.0,55,0.00,,---,0.00,0.00,VWS V14.00,2013-03-26 03:30:00,